| time (UTC) | temp F | wind direction | speed MPH | gust MPH | rain 1hr in | rain 24hr in | rain mn in | humidity % | barometer mb |
| 20260504202013 | 54 | 230 | 8.0 | 17.0 | 0.00 | 0.00 | 0.00 | 44 | 998.4 |
| 20260504201528 | 54 | 259 | 7.0 | 16.0 | 0.00 | 0.00 | 0.00 | 44 | 998.2 |
| 20260504201013 | 54 | 287 | 4.0 | 14.0 | 0.00 | 0.00 | 0.00 | 46 | 998.1 |
| 20260504200511 | 55 | 275 | 5.0 | 14.0 | 0.00 | 0.00 | 0.00 | 46 | 998.0 |
| 20260504200030 | 56 | 261 | 4.0 | 16.0 | 0.00 | 0.00 | 0.00 | 44 | 998.0 |
| 20260504195510 | 57 | 307 | 5.0 | 16.0 | 0.00 | 0.00 | 0.00 | 45 | 997.8 |
| 20260504195012 | 56 | 272 | 6.0 | 16.0 | 0.00 | 0.00 | 0.00 | 44 | 997.7 |
| 20260504194533 | 56 | 269 | 7.0 | 17.0 | 0.00 | 0.00 | 0.00 | 45 | 997.7 |
| 20260504194009 | 56 | 270 | 6.0 | 17.0 | 0.00 | 0.00 | 0.00 | 48 | 997.4 |
| 20260504193511 | 57 | 270 | 7.0 | 17.0 | 0.00 | 0.00 | 0.00 | 47 | 997.6 |
| 20260504193029 | 57 | 267 | 7.0 | 15.0 | 0.00 | 0.00 | 0.00 | 43 | 997.4 |
| 20260504192510 | 57 | 305 | 7.0 | 19.0 | 0.00 | 0.00 | 0.00 | 44 | 997.2 |
| 20260504192013 | 57 | 257 | 5.0 | 19.0 | 0.00 | 0.00 | 0.00 | 45 | 997.2 |
| 20260504191531 | 58 | 297 | 7.0 | 19.0 | 0.00 | 0.00 | 0.00 | 43 | 997.1 |
| 20260504191012 | 59 | 244 | 6.0 | 13.0 | 0.00 | 0.00 | 0.00 | 44 | 997.0 |
| 20260504190513 | 58 | 217 | 4.0 | 13.0 | 0.00 | 0.00 | 0.00 | 47 | 996.9 |
| 20260504190030 | 58 | 252 | 7.0 | 15.0 | 0.00 | 0.00 | 0.00 | 45 | 996.9 |
| 20260504185510 | 58 | 281 | 7.0 | 15.0 | 0.00 | 0.00 | 0.00 | 45 | 996.8 |
| 20260504185012 | 58 | 269 | 5.0 | 13.0 | 0.00 | 0.00 | 0.00 | 45 | 996.7 |
| 20260504184530 | 58 | 306 | 4.0 | 14.0 | 0.00 | 0.00 | 0.00 | 49 | 996.7 |
| 20260504184014 | 58 | 306 | 5.0 | 15.0 | 0.00 | 0.00 | 0.00 | 47 | 996.7 |
| 20260504183514 | 58 | 304 | 6.0 | 15.0 | 0.00 | 0.00 | 0.00 | 47 | 996.4 |
| 20260504183029 | 58 | 291 | 5.0 | 15.0 | 0.00 | 0.00 | 0.00 | 46 | 996.4 |
| 20260504182513 | 58 | 281 | 4.0 | 14.0 | 0.00 | 0.00 | 0.00 | 50 | 996.4 |
| 20260504182015 | 57 | 289 | 6.0 | 14.0 | 0.00 | 0.00 | 0.00 | 48 | 996.2 |
| 20260504181531 | 57 | 190 | 6.0 | 14.0 | 0.00 | 0.00 | 0.00 | 46 | 996.3 |
| 20260504181012 | 58 | 271 | 7.0 | 15.0 | 0.00 | 0.00 | 0.00 | 45 | 996.3 |
| 20260504180515 | 59 | 252 | 8.0 | 15.0 | 0.00 | 0.00 | 0.00 | 46 | 996.1 |
| 20260504180029 | 58 | 279 | 6.0 | 15.0 | 0.00 | 0.00 | 0.00 | 50 | 996.1 |
| 20260504175517 | 57 | 209 | 6.0 | 12.0 | 0.00 | 0.00 | 0.00 | 49 | 996.0 |
| 20260504175017 | 57 | 260 | 5.0 | 13.0 | 0.00 | 0.00 | 0.00 | 49 | 995.8 |
| 20260504174532 | 57 | 279 | 5.0 | 13.0 | 0.00 | 0.00 | 0.00 | 50 | 995.9 |
| 20260504174014 | 58 | 237 | 7.0 | 13.0 | 0.00 | 0.00 | 0.00 | 48 | 995.8 |
| 20260504173512 | 58 | 288 | 7.0 | 13.0 | 0.00 | 0.00 | 0.00 | 49 | 995.9 |
| 20260504173029 | 59 | 238 | 4.0 | 11.0 | 0.00 | 0.00 | 0.00 | 51 | 995.9 |
| 20260504172511 | 58 | 271 | 4.0 | 17.0 | 0.00 | 0.00 | 0.00 | 54 | 995.9 |
| 20260504172016 | 57 | 236 | 8.0 | 17.0 | 0.00 | 0.00 | 0.00 | 50 | 995.8 |
| 20260504171544 | 58 | 266 | 7.0 | 15.0 | 0.00 | 0.00 | 0.00 | 49 | 995.9 |
| 20260504171013 | 57 | 274 | 8.0 | 15.0 | 0.00 | 0.00 | 0.00 | 50 | 995.8 |
| 20260504170513 | 56 | 271 | 6.0 | 16.0 | 0.00 | 0.00 | 0.00 | 52 | 995.9 |
| 20260504151013 | 53 | 266 | 6.0 | 18.0 | 0.00 | 0.00 | 0.00 | 62 | 994.7 |
| 20260504150513 | 53 | 259 | 8.0 | 18.0 | 0.00 | 0.00 | 0.00 | 61 | 994.6 |
| 20260504141013 | 55 | 284 | 6.0 | 13.0 | 0.00 | 0.00 | 0.00 | 61 | 994.2 |
| 20260504140510 | 56 | 269 | 4.0 | 9.0 | 0.00 | 0.00 | 0.00 | 62 | 993.9 |
| 20260504130512 | 57 | 264 | 4.0 | 13.0 | 0.00 | 0.00 | 0.00 | 58 | 993.5 |
| 20260504110508 | 57 | 215 | 8.0 | 25.0 | 0.00 | 0.00 | 0.00 | 45 | 992.3 |
| 20260504100514 | 57 | 223 | 4.0 | 16.0 | 0.00 | 0.00 | 0.00 | 48 | 993.7 |
| 20260504081529 | 57 | 217 | 8.0 | 18.0 | 0.00 | 0.00 | 0.00 | 50 | 995.9 |
| 20260504081013 | 57 | 212 | 8.0 | 18.0 | 0.00 | 0.00 | 0.00 | 49 | 996.0 |
| 20260504080511 | 57 | 176 | 8.0 | 17.0 | 0.00 | 0.00 | 0.00 | 53 | 996.2 |
| 20260504050510 | 55 | 202 | 3.0 | 8.0 | 0.00 | 0.00 | 0.00 | 50 | 1000.1 |
| 20260504045509 | 55 | 198 | 3.0 | 8.0 | 0.00 | 0.00 | 0.00 | 53 | 1000.5 |
| 20260504045013 | 55 | 203 | 2.0 | 8.0 | 0.00 | 0.00 | 0.00 | 50 | 1000.6 |
| 20260504044531 | 55 | 198 | 2.0 | 7.0 | 0.00 | 0.00 | 0.00 | 50 | 1000.7 |
| 20260504044010 | 55 | 225 | 3.0 | 10.0 | 0.00 | 0.00 | 0.00 | 49 | 1000.8 |
| 20260504043510 | 55 | 192 | 3.0 | 10.0 | 0.00 | 0.00 | 0.00 | 50 | 1000.9 |
| 20260504043043 | 55 | 196 | 3.0 | 10.0 | 0.00 | 0.00 | 0.00 | 51 | 1000.9 |
| 20260504042510 | 55 | 216 | 2.0 | 6.0 | 0.00 | 0.00 | 0.00 | 49 | 1001.1 |
| 20260504042013 | 55 | 224 | 3.0 | 6.0 | 0.00 | 0.00 | 0.00 | 50 | 1001.1 |
| 20260504041536 | 55 | 223 | 2.0 | 7.0 | 0.00 | 0.00 | 0.00 | 48 | 1001.2 |
| 20260504041009 | 55 | 219 | 3.0 | 7.0 | 0.00 | 0.00 | 0.00 | 50 | 1001.3 |
| 20260504040512 | 55 | 222 | 2.0 | 6.0 | 0.00 | 0.00 | 0.00 | 48 | 1001.4 |
| 20260504040032 | 56 | 213 | 2.0 | 7.0 | 0.00 | 0.00 | 0.00 | 48 | 1001.4 |
| 20260504035511 | 56 | 223 | 2.0 | 7.0 | 0.00 | 0.00 | 0.00 | 49 | 1001.6 |
| 20260504035014 | 55 | 202 | 2.0 | 8.0 | 0.00 | 0.00 | 0.00 | 50 | 1001.6 |
| 20260504034534 | 55 | 198 | 3.0 | 8.0 | 0.00 | 0.00 | 0.00 | 52 | 1001.7 |
| 20260504034013 | 55 | 196 | 2.0 | 6.0 | 0.00 | 0.00 | 0.00 | 52 | 1001.8 |
| 20260504033513 | 54 | 200 | 2.0 | 6.0 | 0.00 | 0.00 | 0.00 | 52 | 1002.0 |
| 20260504033034 | 54 | 269 | 1.0 | 4.0 | 0.00 | 0.00 | 0.00 | 56 | 1002.1 |
| 20260504032510 | 53 | 269 | 1.0 | 4.0 | 0.00 | 0.00 | 0.00 | 54 | 1002.2 |
| 20260504032015 | 53 | 269 | 1.0 | 3.0 | 0.00 | 0.00 | 0.00 | 54 | 1002.2 |
| 20260504031530 | 53 | 269 | 2.0 | 4.0 | 0.00 | 0.00 | 0.00 | 52 | 1002.4 |
| 20260504031018 | 52 | 269 | 1.0 | 4.0 | 0.00 | 0.00 | 0.00 | 52 | 1002.5 |
| 20260504030514 | 52 | 269 | 2.0 | 3.0 | 0.00 | 0.00 | 0.00 | 55 | 1002.6 |
| 20260504030034 | 52 | 269 | 1.0 | 3.0 | 0.00 | 0.00 | 0.00 | 60 | 1002.7 |
| 20260504025514 | 52 | 269 | 1.0 | 2.0 | 0.00 | 0.00 | 0.00 | 58 | 1002.8 |
| 20260504025011 | 52 | 0 | 0.0 | 2.0 | 0.00 | 0.00 | 0.00 | 55 | 1002.8 |
| 20260504024535 | 52 | 269 | 0.0 | 2.0 | 0.00 | 0.00 | 0.00 | 57 | 1002.8 |
| 20260504024011 | 52 | 0 | 0.0 | 1.0 | 0.00 | 0.00 | 0.00 | 53 | 1002.8 |
| 20260504023511 | 52 | 0 | 0.0 | 2.0 | 0.00 | 0.00 | 0.00 | 51 | 1003.0 |
| 20260504023030 | 53 | 0 | 0.0 | 2.0 | 0.00 | 0.00 | 0.00 | 50 | 1003.0 |
| 20260504022511 | 53 | 269 | 0.0 | 2.0 | 0.00 | 0.00 | 0.00 | 56 | 1003.0 |
| 20260504022013 | 53 | 0 | 0.0 | 0.0 | 0.00 | 0.00 | 0.00 | 54 | 1003.0 |
| 20260504021533 | 54 | 0 | 0.0 | 0.0 | 0.00 | 0.00 | 0.00 | 65 | 1003.1 |
| 20260504021011 | 54 | 0 | 0.0 | 0.0 | 0.00 | 0.00 | 0.00 | 47 | 1003.1 |
| 20260504020511 | 54 | 0 | 0.0 | 0.0 | 0.00 | 0.00 | 0.00 | 45 | 1003.1 |
| 20260504020031 | 55 | 0 | 0.0 | 0.0 | 0.00 | 0.00 | 0.00 | 43 | 1003.2 |
| 20260504015512 | 55 | 0 | 0.0 | 0.0 | 0.00 | 0.00 | 0.00 | 43 | 1003.2 |
| 20260504015012 | 56 | 0 | 0.0 | 0.0 | 0.00 | 0.00 | 0.00 | 45 | 1003.1 |
| 20260504014538 | 56 | 0 | 0.0 | 0.0 | 0.00 | 0.00 | 0.00 | 48 | 1003.2 |
| 20260504014009 | 57 | 0 | 0.0 | 0.0 | 0.00 | 0.00 | 0.00 | 44 | 1003.1 |
| 20260504013511 | 57 | 0 | 0.0 | 0.0 | 0.00 | 0.00 | 0.00 | 47 | 1003.1 |
| 20260504013033 | 58 | 0 | 0.0 | 0.0 | 0.00 | 0.00 | 0.00 | 41 | 1003.3 |
| 20260504012509 | 58 | 0 | 0.0 | 0.0 | 0.00 | 0.00 | 0.00 | 37 | 1003.2 |
| 20260504012010 | 59 | 0 | 0.0 | 1.0 | 0.00 | 0.00 | 0.00 | 36 | 1003.3 |
| 20260504011530 | 59 | 0 | 0.0 | 1.0 | 0.00 | 0.00 | 0.00 | 37 | 1003.3 |
| 20260504011012 | 59 | 0 | 0.0 | 2.0 | 0.00 | 0.00 | 0.00 | 38 | 1003.4 |
| 20260504010510 | 60 | 0 | 0.0 | 3.0 | 0.00 | 0.00 | 0.00 | 36 | 1003.3 |
| 20260504010030 | 60 | 269 | 0.0 | 3.0 | 0.00 | 0.00 | 0.00 | 35 | 1003.5 |
| 20260504005511 | 60 | 269 | 1.0 | 3.0 | 0.00 | 0.00 | 0.00 | 35 | 1003.3 |
| 20260504005018 | 61 | 269 | 1.0 | 3.0 | 0.00 | 0.00 | 0.00 | 35 | 1003.4 |
| 20260504004530 | 61 | 269 | 1.0 | 3.0 | 0.00 | 0.00 | 0.00 | 35 | 1003.4 |
| 20260504004014 | 61 | 269 | 1.0 | 4.0 | 0.00 | 0.00 | 0.00 | 34 | 1003.4 |
| 20260504003517 | 62 | 269 | 2.0 | 4.0 | 0.00 | 0.00 | 0.00 | 34 | 1003.4 |
| 20260504003035 | 62 | 284 | 2.0 | 4.0 | 0.00 | 0.00 | 0.00 | 33 | 1003.3 |
| 20260504002511 | 62 | 259 | 1.0 | 4.0 | 0.00 | 0.00 | 0.00 | 32 | 1003.3 |
| 20260504002016 | 62 | 268 | 1.0 | 6.0 | 0.00 | 0.00 | 0.00 | 33 | 1003.3 |
| 20260504001537 | 62 | 268 | 2.0 | 8.0 | 0.00 | 0.00 | 0.00 | 32 | 1003.3 |
| 20260504001010 | 63 | 275 | 3.0 | 8.0 | 0.00 | 0.00 | 0.00 | 32 | 1003.4 |
| 20260504000511 | 63 | 288 | 3.0 | 8.0 | 0.00 | 0.00 | 0.00 | 32 | 1003.4 |
| 20260504000032 | 63 | 267 | 1.0 | 9.0 | 0.00 | 0.00 | 0.00 | 34 | 1003.5 |
| 20260503235512 | 63 | 256 | 4.0 | 10.0 | 0.00 | 0.00 | 0.00 | 31 | 1003.5 |
| 20260503235011 | 63 | 222 | 5.0 | 10.0 | 0.00 | 0.00 | 0.00 | 30 | 1003.4 |
| 20260503234532 | 63 | 216 | 3.0 | 11.0 | 0.00 | 0.00 | 0.00 | 30 | 1003.5 |
| 20260503234012 | 64 | 261 | 5.0 | 11.0 | 0.00 | 0.00 | 0.00 | 31 | 1003.6 |
| 20260503233511 | 64 | 266 | 3.0 | 9.0 | 0.00 | 0.00 | 0.00 | 33 | 1003.5 |
| 20260503233030 | 64 | 271 | 3.0 | 12.0 | 0.00 | 0.00 | 0.00 | 32 | 1003.6 |
| 20260503232514 | 65 | 294 | 5.0 | 12.0 | 0.00 | 0.00 | 0.00 | 31 | 1003.5 |
| 20260503232014 | 64 | 217 | 2.0 | 9.0 | 0.00 | 0.00 | 0.00 | 31 | 1003.6 |
| 20260503231530 | 64 | 300 | 4.0 | 8.0 | 0.00 | 0.00 | 0.00 | 29 | 1003.6 |
| 20260503231013 | 65 | 261 | 3.0 | 9.0 | 0.00 | 0.00 | 0.00 | 31 | 1003.7 |
| 20260503230511 | 65 | 273 | 3.0 | 11.0 | 0.00 | 0.00 | 0.00 | 29 | 1003.7 |
| 20260503230034 | 65 | 273 | 6.0 | 11.0 | 0.00 | 0.00 | 0.00 | 28 | 1003.7 |
| 20260503225513 | 65 | 0 | 2.0 | 9.0 | 0.00 | 0.00 | 0.00 | 29 | 1003.6 |
| 20260503225014 | 65 | 318 | 2.0 | 9.0 | 0.00 | 0.00 | 0.00 | 30 | 1003.7 |
| 20260503224533 | 65 | 300 | 2.0 | 9.0 | 0.00 | 0.00 | 0.00 | 29 | 1003.6 |
| 20260503224012 | 65 | 277 | 1.0 | 7.0 | 0.00 | 0.00 | 0.00 | 28 | 1003.7 |
| 20260503223514 | 65 | 284 | 3.0 | 10.0 | 0.00 | 0.00 | 0.00 | 28 | 1003.7 |
| 20260503223033 | 65 | 324 | 3.0 | 12.0 | 0.00 | 0.00 | 0.00 | 27 | 1003.7 |
| 20260503222509 | 65 | 254 | 5.0 | 12.0 | 0.00 | 0.00 | 0.00 | 26 | 1003.7 |
| 20260503222015 | 65 | 268 | 5.0 | 12.0 | 0.00 | 0.00 | 0.00 | 26 | 1003.7 |
| 20260503221533 | 65 | 261 | 3.0 | 10.0 | 0.00 | 0.00 | 0.00 | 27 | 1003.6 |
| 20260503221009 | 65 | 281 | 3.0 | 9.0 | 0.00 | 0.00 | 0.00 | 31 | 1003.7 |
| 20260503220512 | 65 | 324 | 2.0 | 9.0 | 0.00 | 0.00 | 0.00 | 28 | 1003.7 |
| 20260503220032 | 65 | 286 | 3.0 | 8.0 | 0.00 | 0.00 | 0.00 | 27 | 1003.8 |
| 20260503215511 | 65 | 327 | 2.0 | 9.0 | 0.00 | 0.00 | 0.00 | 27 | 1003.7 |
| 20260503215012 | 65 | 0 | 2.0 | 10.0 | 0.00 | 0.00 | 0.00 | 26 | 1003.7 |
| 20260503214531 | 65 | 290 | 4.0 | 10.0 | 0.00 | 0.00 | 0.00 | 25 | 1003.7 |
| 20260503214012 | 65 | 265 | 6.0 | 10.0 | 0.00 | 0.00 | 0.00 | 25 | 1003.7 |
| 20260503213513 | 65 | 262 | 5.0 | 11.0 | 0.00 | 0.00 | 0.00 | 25 | 1003.8 |
| 20260503213033 | 65 | 330 | 4.0 | 11.0 | 0.00 | 0.00 | 0.00 | 27 | 1003.9 |
| 20260503212512 | 66 | 288 | 4.0 | 12.0 | 0.00 | 0.00 | 0.00 | 27 | 1003.7 |
| 20260503212013 | 66 | 216 | 6.0 | 12.0 | 0.00 | 0.00 | 0.00 | 24 | 1003.6 |
| 20260503211532 | 67 | 289 | 4.0 | 11.0 | 0.00 | 0.00 | 0.00 | 26 | 1003.8 |
| 20260503211010 | 66 | 315 | 2.0 | 10.0 | 0.00 | 0.00 | 0.00 | 27 | 1003.8 |
| 20260503210510 | 67 | 317 | 3.0 | 10.0 | 0.00 | 0.00 | 0.00 | 27 | 1003.7 |
| 20260503210033 | 67 | 272 | 3.0 | 11.0 | 0.00 | 0.00 | 0.00 | 25 | 1003.7 |
| 20260503205510 | 66 | 250 | 2.0 | 11.0 | 0.00 | 0.00 | 0.00 | 31 | 1003.6 |
| 20260503205012 | 66 | 313 | 3.0 | 12.0 | 0.00 | 0.00 | 0.00 | 27 | 1003.7 |
| 20260503204529 | 66 | 297 | 4.0 | 12.0 | 0.00 | 0.00 | 0.00 | 27 | 1003.7 |
| 20260503204017 | 66 | 280 | 2.0 | 11.0 | 0.00 | 0.00 | 0.00 | 27 | 1003.8 |
| 20260503203513 | 67 | 243 | 4.0 | 11.0 | 0.00 | 0.00 | 0.00 | 28 | 1003.8 |
| 20260503203032 | 66 | 254 | 4.0 | 12.0 | 0.00 | 0.00 | 0.00 | 26 | 1003.7 |
| 20260503202509 | 66 | 258 | 5.0 | 12.0 | 0.00 | 0.00 | 0.00 | 28 | 1003.9 |